Location: Marysville Observatory
(48.1092°N, 122.1645°W)
Time: 21:08:02
(UTC-07:00)

Daily predictions for brighter satellites

Satellite Brightness Start Highest point End
(mag) Time Altitude Azimuth Time Altitude Azimuth Time Altitude Azimuth
Cosmos 2322 4.4 18:37:22 10° NNW 18:42:36 34° NE 18:47:47 10° ESE
Cosmos 1727 Rocket 4.4 18:36:35 10° N 18:42:37 42° ENE 18:48:35 10° SE
Cosmos 2341 Rocket 4.1 18:37:33 10° S 18:43:49 82° E 18:50:10 10° N
Cosmos 1484 Rocket 3.1 18:42:00 10° S 18:45:43 68° WSW 18:49:26 10° NNW
Gbstr 26 Del rocket 3.7 18:42:18 10° WNW 18:46:52 57° N 18:52:33 10° E
Abrixas rocket 3.2 18:44:56 10° SW 18:47:55 33° SSE 18:50:56 10° E
YAOGAN 1 2.5 18:43:46 10° SSE 18:48:05 76° ENE 18:52:26 10° N
Cosmos 1703 4.1 18:45:40 10° N 18:49:12 30° ENE 18:52:41 10° SE
Meteor 1-16 Rocket 4.2 18:44:22 10° S 18:49:29 53° E 18:54:42 10° NNE
GP-B 3.5 18:45:28 10° NNE 18:49:40 41° E 18:53:53 10° SSE
ALOS 2.9 18:46:44 10° SE 18:50:59 36° ENE 18:55:15 10° N
Landsat 4 3.6 18:47:53 10° NNE 18:51:39 80° ESE 18:55:22 10° SSW
Cosmos 1833 Rocket 4.3 18:47:10 10° WSW 18:52:17 35° NW 18:57:26 10° NNE
Meteor 2-15 4.5 18:46:48 10° N 18:52:55 88° E 18:59:02 10° S
CZ-4 R/B 2.0 18:50:11 10° S 18:54:23 67° WSW 18:58:34 10° NNW
Tiangong 1 3.7 18:55:06 10° SW 18:56:08 12° SSW 18:57:10 10° S
CZ-2C R/B 3.7 18:51:55 10° NNE 18:56:31 85° ESE 19:01:00 10° SSW
Cosmos 1953 4.2 18:53:31 10° SW 18:57:17 36° WNW 19:01:04 10° N
FENGYUN 3A 4.0 18:53:33 10° SE 18:58:38 45° ENE 19:03:47 10° N
Cosmos 1400 Rocket 3.1 18:54:45 10° N 18:58:43 47° ENE 19:02:36 10° SSE
MOS 1 4.3 18:57:46 10° SSE 19:03:26 82° ENE 19:09:09 10° NNW
Cosmos-2242 3.0 19:00:06 10° S 19:04:22 86° E 19:08:39 10° N
Meteor 1-28 Rocket 3.3 19:02:04 10° N 19:05:54 84° WNW 19:09:40 10° SSW
Meteor 2-14 Rocket 4.4 19:00:56 10° S 19:07:01 73° E 19:13:05 10° NNE
Cosmos 2219 Rocket 3.4 19:02:58 10° N 19:07:18 22° NE 19:11:01 12° E
SKYMED 2 3.7 19:03:12 10° NNE 19:07:30 55° E 19:11:45 10° S
Cosmos 1624 Rocket 4.2 19:02:48 10° NNW 19:08:01 76° WSW 19:13:14 10° SSE
ERS-2 3.5 19:05:11 10° S 19:08:43 44° W 19:12:18 10° NNW
Meteor 2-16 Rocket 4.4 19:03:31 10° S 19:09:32 66° E 19:15:38 10° NNE
Thor Agena Rocket 4.4 19:06:50 10° NE 19:11:11 27° E 19:15:27 10° SSE
Cosmos 1743 Rocket 3.5 19:09:38 10° N 19:14:01 73° E 19:18:24 10° SSE
Cosmos 1908 4.3 19:12:11 10° SE 19:15:22 24° E 19:18:34 10° NE
Cosmos 2151 3.0 19:12:11 10° N 19:16:27 60° ENE 19:20:40 10° SSE
SL-16 R/B 3.0 19:11:31 10° NW 19:17:05 57° WSW 19:22:36 10° S
Cosmos 2237 4.5 19:12:55 10° NNW 19:18:31 49° NE 19:24:03 10° SE
Cosmos 1420 Rocket 4.4 19:13:25 10° NNW 19:18:31 44° ENE 19:23:34 10° SE
MTI 4.3 19:15:43 10° N 19:18:55 62° WNW 19:22:05 10° SSW
Cosmos 1680 Rocket 4.5 19:13:51 10° SW 19:18:59 50° WNW 19:24:07 10° NNE
USA 234 3.8 19:15:23 13° E 19:21:00 45° NNE 19:27:11 10° WNW
Iridium 4 Rocket 4.3 19:17:41 10° SE 19:22:40 36° E 19:27:55 10° NNE
H-2A R/B 3.4 19:19:55 10° SE 19:23:26 34° ENE 19:27:00 10° N
Cosmos 1842 Rocket 3.6 19:20:30 10° S 19:24:54 60° E 19:29:19 10° NNE
ISS -0.7 19:25:54 10° WSW 19:27:08 12° SW 19:28:22 10° SSW
Envisat 4.3 19:26:29 17° E 19:28:20 21° ENE 19:32:03 10° NNE
Resurs 01 Rocket 3.0 19:27:35 18° E 19:28:35 19° ENE 19:31:44 10° NNE
FREGAT/IRIS 3.0 19:28:22 12° SE 19:30:53 38° ENE 19:33:42 10° N
Cosmos 2237 Rocket 3.6 19:31:09 10° N 19:35:29 22° NE 19:37:30 18° ENE
Cosmos 2221 3.0 19:32:13 10° SSE 19:36:09 36° E 19:40:09 10° NNE
Cosmos 1500 Rocket 3.5 19:32:01 10° N 19:36:25 87° W 19:40:44 10° S
CZ-2D R/B 4.3 19:37:04 24° E 19:37:36 25° ENE 19:40:49 10° N
Cosmos 1315 Rocket 2.7 19:35:45 10° N 19:39:47 68° ENE 19:43:52 10° SSE
SL-16 R/B 4.0 19:40:13 10° N 19:43:06 14° NNE 19:44:37 13° NE
Cosmos 921 Rocket 3.0 19:38:56 10° NNW 19:43:27 74° ENE 19:47:51 10° SSE
Geosat FO 4.5 19:41:22 13° SSE 19:44:33 82° ENE 19:48:12 10° NNW
HJ-1C 3.8 19:43:42 29° ESE 19:44:52 40° ENE 19:48:07 10° N
Cosmos 2366 rocket 4.2 19:38:57 10° SSW 19:45:11 74° W 19:51:23 10° N
SPOT 3 Rocket 4.5 19:43:56 10° S 19:48:58 51° W 19:54:04 10° NNW
Cosmos 158 Rocket 4.4 19:45:13 10° SSE 19:49:47 36° ESE 19:54:30 10° NE
Cosmos 2058 3.5 19:46:17 10° NNW 19:50:27 61° W 19:54:33 10° S
Cosmos 1461 3.7 19:47:50 10° WSW 19:51:48 49° NW 19:55:59 10° NNE
Cosmos 1626 3.7 19:50:31 10° NNW 19:54:00 37° W 19:57:28 10° SSW
COSMOS 2428 2.7 19:48:59 10° NNW 19:54:38 62° ENE 19:58:23 21° SE
RESURS DK-1 2.7 19:50:55 10° NW 19:55:03 66° WSW 19:59:03 10° SSE
COSMO-SKYMED 1 3.5 19:51:21 10° N 19:55:34 49° WNW 19:59:45 10° SW
Cosmos 2333 Rocket 2.8 19:52:45 10° NNW 19:58:08 39° NE 20:00:03 30° E
SAR-Lupe-3 4.4 19:55:11 10° NNE 19:58:48 86° ESE 20:02:23 10° SSW
Cosmos 2084 4.4 19:57:24 10° NNW 20:00:40 26° NE 20:00:45 26° NE
Cosmos 2360 Rocket 2.7 19:55:41 10° NNW 20:01:16 61° WSW 20:06:49 10° S
Cosmos 2098 Rocket 3.4 19:59:39 10° SSE 20:03:49 52° E 20:09:10 10° NNE
Cosmos 1833 4.1 19:59:02 10° SSW 20:04:44 84° ESE 20:10:25 10° NNE
Lacrosse 5 rocket 2.9 20:02:54 10° W 20:06:54 32° NNW 20:09:05 20° NNE
FengYun 1-2 T 4.2 20:02:04 10° SSE 20:07:35 85° WSW 20:13:07 10° NNW
Cosmos 468 4.4 20:03:08 10° S 20:08:15 60° ESE 20:13:26 10° NNE
SL-24 R/B - RUBIN 2 4.4 20:03:29 10° NW 20:08:20 54° WSW 20:11:47 16° SSE
Meteor 2-1 Rocket 4.5 20:02:48 10° SSW 20:08:36 76° WNW 20:14:31 10° N
SJ-6B 2.5 20:06:33 23° SSE 20:08:46 87° E 20:12:32 10° NNW
Cosmos 2219 3.7 20:04:38 10° S 20:09:45 35° ESE 20:09:45 35° ESE
SL-8 R/B 4.1 20:07:18 10° SW 20:11:51 42° SSE 20:12:26 40° SE
Sich 1 3.1 20:07:38 10° N 20:11:53 50° ENE 20:12:08 50° E
Cosmos 1452 Rocket 4.2 20:08:15 10° NNW 20:13:22 54° WSW 20:18:28 10° S
Cosmos 1805 Rocket 3.4 20:10:08 10° N 20:14:32 80° E 20:16:56 26° SSE
NOSS 0 Rocket 4.2 20:08:49 10° NNW 20:14:49 48° NE 20:16:35 38° E
BREEZE-M DEB (TANK) 3.0 20:08:15 10° W 20:17:55 73° S 20:19:03 49° ESE
MOS 1-B Rocket 3.8 20:16:03 25° SSE 20:19:27 68° ENE 20:25:30 10° N
Cosmos 1821 Rocket 3.8 20:16:36 10° S 20:22:43 77° E 20:28:58 10° NNE
Cosmos 1666 Rocket 3.4 20:18:35 10° N 20:22:57 64° ENE 20:22:57 64° ENE
CZ-3A R/B 4.4 19:51:06 10° WNW 20:23:02 71° NNE 20:27:05 34° E
ATLAS 5 CENTAUR R/B 4.2 20:20:29 10° NW 20:23:46 16° N 20:26:35 12° NNE
Abrixas rocket 2.8 20:21:04 10° W 20:23:46 56° WSW 20:23:46 56° WSW
USA 267 3.4 20:24:25 38° E 20:26:32 52° SE 20:32:52 10° SSW
Aureole 2 Rocket 3.2 20:23:04 10° NNW 20:25:58 47° N 20:25:58 47° N
ALOS 4.2 20:24:23 10° SSW 20:28:28 29° W 20:32:34 10° NNW
Atlas Centaur 2 4.3 20:26:25 10° SSW 20:28:47 13° S 20:29:50 12° S
Cosmos 2239 Rocket 4.3 20:25:33 10° S 20:31:41 88° E 20:37:53 10° N
Cosmos 1934 Rocket 3.9 20:25:35 10° S 20:31:53 70° E 20:38:15 10° NNE
Spot 2 Rocket 3.4 20:31:48 61° ESE 20:32:18 65° ENE 20:37:20 10° N
Cosmos 1633 Rocket 3.2 20:28:37 10° N 20:32:22 57° NNE 20:32:22 57° NNE
Gbstr 26 Del rocket 3.6 20:29:02 10° WNW 20:34:13 84° SSW 20:35:37 54° ESE
Cosmos 1110 Rocket 4.0 20:30:59 10° NNW 20:36:17 60° ENE 20:36:22 59° ENE
CZ-4C R/B 3.3 20:40:30 10° SSW 20:42:52 27° S 20:42:52 27° S
Cosmos 2123 Rocket 3.9 20:40:38 10° N 20:46:53 87° W 20:50:17 29° S
Cosmos 2219 Rocket 2.1 20:46:19 10° NNW 20:51:57 82° WSW 20:52:46 65° S
Cosmos 1605 Rocket 3.8 20:56:46 73° E 20:56:46 73° E 21:02:50 10° NNE
Geosat 4.3 20:59:00 56° N 20:59:00 56° N 21:03:09 10° NNW
Cosmos 1048 Rocket 4.0 20:53:09 10° SSW 20:58:16 74° WNW 20:59:36 49° N
USA 234 3.1 21:02:44 68° E 21:03:38 82° NNE 21:10:13 10° NW
Resurs 01 Rocket 2.3 21:05:10 51° WNW 21:05:10 51° WNW 21:09:03 10° NNW
Envisat 3.2 21:06:42 64° WSW 21:06:54 65° WSW 21:11:59 10° NNW
Meteor 2-3 Rocket 4.1 21:06:00 10° N 21:10:30 54° N 21:10:30 54° N
Cosmos 2237 Rocket 2.5 21:14:36 10° NNW 21:19:21 63° NNW 21:19:21 63° NNW
BREEZE M DEB (TANK) 4.3 21:14:35 10° WNW 21:27:25 60° SW 21:27:25 60° SW
SL-16 R/B 3.4 21:23:06 10° NNW 21:26:29 34° N 21:26:29 34° N
Cosmos 2333 Rocket 3.3 21:37:05 10° NW 21:42:05 41° W 21:42:05 41° W
Lacrosse 5 rocket 4.2 21:43:34 10° NW 21:44:46 16° NW 21:44:46 16° NW
H-2A R/B 4.3 22:00:58 18° N 22:00:58 18° N 22:02:16 10° N
USA 267 4.1 22:11:48 44° W 22:11:48 44° W 22:16:09 10° WSW
ATLAS 5 CENTAUR R/B 4.3 22:05:52 10° NNW 22:08:07 19° N 22:08:07 19° N
